Regional Weather Roundup
Issued by NWS

Home | Current Version | Previous Version | Graphics & Text | Print | Product List | Glossary Off
Versions: 1 2 3 4 5 6 7 8 9 10 11 12 13 14 15 16 17 18 19 20 21 22 23 24 25 26 27 28 29 30 31 32 33 34 35 36 37 38 39 40 41 42 43 44 45 46 47 48 49 50

000
ASUS45 KBOU 172307
RWRCO

WEATHER ROUNDUP FOR COLORADO
NATIONAL WEATHER SERVICE DENVER/BOULDER CO
500 PM MDT WED SEP 17 2014

NOTE: "FAIR" INDICATES FEW OR NO CLOUDS BELOW 12000 FEET WITH NO
SIGNIFICANT WEATHER AND/OR OBSTRUCTIONS TO VISIBILITY.

COZ001>005-013-030-031-180000-
...NORTHWEST COLORADO...

CITY           SKY/WX    TMP DP  RH WIND       PRES   REMARKS
CRAIG          MOSUNNY   78  41  26 W7        30.08F
HAYDEN         MOSUNNY   81  32  17 W7        30.11S
MEEKER         SUNNY     82  35  18 CALM      30.09F
MOUNT WERNER   NOT AVBL
STEAMBOAT SPGS MOSUNNY   80  34  19 S6        30.12F
WALDEN         PTSUNNY   59  46  63 NE6       30.27S
$$

COZ006>008-011-180000-
...WEST CENTRAL VALLEYS...

CITY           SKY/WX    TMP DP  RH WIND       PRES   REMARKS
GRAND JUNCTION SUNNY     87  39  18 W10       29.95F
MONTROSE       SUNNY     86  35  16 NW8       30.03F
EAGLE          MOSUNNY   82  34  17 NW10      30.10F
RIFLE          SUNNY     87  33  14 CALM      30.00F
DELTA          SUNNY     91  33  12 W10G17    29.97F
NUCLA          LGT RAIN  73  46  38 SE12G21   30.13R
$$

COZ017>023-064>068-180000-
...SOUTHWEST COLORADO...

CITY           SKY/WX    TMP DP  RH WIND       PRES   REMARKS
DURANGO        LGT RAIN  59  52  77 NE17      30.20R
CORTEZ         LGT RAIN  60  54  80 SE16      30.16F
PAGOSA SPRINGS CLOUDY    59  46  61 NW8G17    30.24R
TELLURIDE      NOT AVBL
WOLF CREEK PAS CLOUDY    46  37  71 CALM      30.51R
$$

COZ009-010-012-014-032>034-037-058>063-180000-
...CENTRAL COLORADO...

CITY           SKY/WX    TMP DP  RH WIND       PRES   REMARKS
ASPEN          MOSUNNY   78  32  18 NW9       30.17F
BUENA VISTA    PTSUNNY   77  26  14 E7        30.19S
COPPER MTN     MOSUNNY   61  27  27 W12G18    30.53F
BERTHOUD PASS  FAIR      52  50  93 MISG      30.58S
COTTONWOOD PAS CLOUDY    70  21  16 SE7       30.35S
GUNNISON       PTSUNNY   77  32  19 N8        30.18F
KREMMLING      SUNNY     79  21  11 SW6       30.17S
LEADVILLE      MOSUNNY   69  25  19 N7        30.33F
MONARCH PASS   PTSUNNY   55  30  38 N7        30.61F
SALIDA         PTSUNNY   80  27  14 SE5       30.22F
SUNLIGHT       SUNNY     63  36  36 N3        30.46S
WILKERSON PASS NOT AVBL
$$

COZ069>075-180000-
...SAN LUIS VALLEY/SANGRE DE CRISTO MOUNTAINS...

CITY           SKY/WX    TMP DP  RH WIND       PRES   REMARKS
ALAMOSA        PTSUNNY   72  38  29 NE18G24   30.18R
LA VETA PASS   NOT AVBL
SAGUACHE       PTSUNNY   73  36  25 S10       30.21S
$$

COZ035-036-038>040-180000-
...NORTHERN COLORADO FRONT RANGE...

CITY           SKY/WX    TMP DP  RH WIND       PRES   REMARKS
DENVER INTL AP PTSUNNY   86  33  15 SE3       30.01F
DMNS CITY PARK   N/A     88  32  13 S2        29.99F
AURORA         PTSUNNY   85  33  15 NE5       30.03F
FRONT RANGE AP NOT AVBL
ERIE MUNI ARPT MOSUNNY   85  31  14 CALM      29.99S
BOULDER MUN AP MOSUNNY   82  37  20 NE13G24   30.00S
CENTENNIAL     MOSUNNY   84  31  14 CALM      30.04F
BROOMFIELD     PTSUNNY   86  32  14 VRB5      30.03F
FORT COLLINS   MOSUNNY   84  41  21 NE16G24   29.99R
LONGMONT       MOSUNNY   90  39  16 NE3       30.00S
$$

COZ041-046-047-076>085-087-088-180000-
...PIKES PEAK/PALMER DIVIDE AND SOUTHERN FOOTHILLS...

CITY           SKY/WX    TMP DP  RH WIND       PRES   REMARKS
COLO. SPRINGS  PTSUNNY   81  36  19 S7        30.09F
A. F. ACADEMY  PTSUNNY   78  38  23 S10       30.11S
ELLICOTT       NOT AVBL
FALCON         PTSUNNY   79  35  20 CALM      30.15S
FORT CARSON    PTSUNNY   84  38  19 S8        30.05F
LIMON          MOSUNNY   83  36  18 SW9       30.03F
MONUMENT HILL  MOSUNNY   73  32  21 E6        30.15S
TRINIDAD       MOSUNNY   83  38  20 SE15      30.03F
$$

COZ042>045-048>051-090-091-180000-
...NORTHEAST COLORADO...

CITY           SKY/WX    TMP DP  RH WIND       PRES   REMARKS
GREELEY ARPT   MOSUNNY   88  37  16 N21G26    29.99R
AKRON          MOSUNNY   83  42  23 NE7       29.97S
BURLINGTON     MOSUNNY   85  46  25 SW9       29.95F
WRAY           SUNNY     91  44  19 NE5       29.91S
STERLING       MOSUNNY   90  52  27 CALM      29.92S
HOLYOKE        SUNNY     88  46  23 SE3       29.91F
FORT MORGAN    MOSUNNY   80  46  30 NE13      29.97F
$$

COZ086-089-092>099-180000-
...SOUTHEAST COLORADO...

CITY           SKY/WX    TMP DP  RH WIND       PRES   REMARKS
PUEBLO         PTSUNNY   89  34  14 S5        29.94F
LA JUNTA       MOSUNNY   92  35  13 SW5       29.92F
LAMAR          PTSUNNY   93  37  14 S9G18     29.88S
SPRINGFIELD      N/A     83  53  35 S9        29.97S
$$



USA.gov is the U.S. government's official web portal to all federal, state and local government web resources and services.